Regional Weather Roundup
Issued by NWS Newport/Morehead, NC

Current Version | Previous Version | Graphics & Text | Print | Product List | Glossary On
Versions: 1 2 3 4 5 6 7 8 9 10 11 12 13 14 15 16 17 18 19 20 21 22 23 24 25 26 27 28 29 30 31 32 33 34 35 36 37 38 39 40 41 42 43 44 45 46 47 48 49 50
000 ASUS42 KMHX 230425 RWRMHX WEATHER ROUNDUP FOR EASTERN NORTH CAROLINA NATIONAL WEATHER SERVICE NEWPORT/MOREHEAD CITY NC 1100 PM EST MON JAN 22 2018 NOTE: "FAIR" INDICATES FEW OR NO CLOUDS BELOW 12,000 FEET WITH NO SIGNIFICANT WEATHER AND/OR OBSTRUCTIONS TO VISIBILITY NCZ015>017-031-032-045>047-102-103-230500- NORTH COAST CITY SKY/WX TMP DP RH WIND PRES REMARKS EDENTON FAIR 55 51 89 SE7 30.06F ELIZABETH CITY MOCLDY 53 53 100 SE6 30.07F KITTY HAWK MOCLDY 59 55 88 CALM 30.07S MANTEO MOCLDY 49 47 96 SW6 30.09S $$ NCZ045>047-081-094-103-104-230500- CENTRAL COAST CITY SKY/WX TMP DP RH WIND PRES REMARKS FRISCO NOT AVBL $$ NCZ095-097-098-100-101-230500- SOUTHERN COAST CITY SKY/WX TMP DP RH WIND PRES REMARKS BEAUFORT FAIR 62 59 90 S8 30.09F CEDAR ISLAND NOT AVBL JACKSONVILLE N/A 54 54 100 S5 30.06F FOG PINEY ISLAND NOT AVBL WILMINGTON FAIR 57 56 96 S6 30.08F $$ NCZ011>013-027>030-043-044-078>080-089-090>093-098-230500- COASTAL PLAIN CITY SKY/WX TMP DP RH WIND PRES REMARKS AHOSKIE FAIR 51 50 96 S5 30.03F CLINTON FAIR 59 59 100 S5 30.05F ELIZABETHTOWN NOT AVBL GOLDSBORO MOCLDY 59 57 92 S6 30.02F GREENVILLE FAIR 59 55 88 S10 30.05F HAVELOCK NOT AVBL KENANSVILLE FAIR 57 55 94 S5 30.06F KINSTON FAIR 58 56 95 S7 30.06F NEW BERN FAIR 60 58 92 S8 30.09S RICHLANDS FAIR 57 56 96 S5 30.07F ROCKY MOUNT FAIR 57 56 96 S8 30.03F WASHINGTON FAIR 55 53 94 CALM 30.06F WHITEVILLE FAIR 59 58 96 SE5 30.05F $$ AMZ130-135-150-152-154-156-158-170-250-252-270-ANZ085-086-088-633-658-670-230500- MARINE OBSERVATIONS STATION/POSITION TIME TEMP WIND PRES WAVE SWELL AIR SEA DIR/SP/G HT/PER HT/PER (UTC) (F) (DEG/KT/KT) (MB) (FT/S) (FT/S) CHESAPEAKE LIGHT NOT AVBL 64 E VA BEACH 0350 63 60 190/ 12/ 12 1019.1 2/ 3 2/10 DUCK 0400 56 41 190/ 11/ 13 1018.1 2 E DUCK 0400 41 N/A 1/11 OREGON INLET 0400 52 44 170/ 7/ 8 1018.9 13E OREGON INLT 0348 42 N/A 1/11 2/11 HATTERAS CG 0400 63 52 200/ 6/ 9 1018.9 DIAMOND BUOY 0410 69 69 200/ 21/ 31 1019.2 CAPE LOOKOUT 0400 180/ 7/ 7 1019.1 BEAUFORT LAB 0400 56 48 180/ 6/ 9 1018.8 30 SE NEW RVR IN 0408 65 59 190/ 10/ 12 1018.7 30 SE NEW RVR IN 0400 58 N/A 3/ 5 27 SE WRIGHTSVLE 0308 67 63 190/ 14/ 19 1018.8 5 SE WRIGHTSVLE 0408 53 47 190/ 8/ 12 1018.1 225 S CAPE HAT 0350 69 70 140/ 17/ 21 1020.7 3/ 9 2/ 9 41 SE CHARLESTON 0410 71 170/ 17/ 21 1017.1 $$

USA.gov is the U.S. government's official web portal to all federal, state and local government web resources and services.